Tracking 30995 objects as of 5-Jul-2025
HD Live streaming from Space Station
objects crossing your sky now

STARLINK-4491

Track STARLINK-4491 now!
10-day predictions
STARLINK-4491 is classified as:


NORAD ID: 53408
Int'l Code: 2022-097W
Perigee: 546.0 km
Apogee: 547.8 km
Inclination: 53.2 °
Period: 95.4 minutes
Semi major axis: 6917 km
RCS: Unknown
Launch date: August 10, 2022
Source: United States (US)
Launch site: AIR FORCE EASTERN TEST RANGE (AFETR)
Your satellite tracking list
Your tracking list is empty




NASA's NSSDC Master Catalog

Two Line Element Set (TLE):
1 53408U 22097W   25186.10791846 -.00000041  00000-0  15509-4 0  9998
2 53408  53.2165 145.5621 0001255  76.4670 283.6462 15.08837420160782
Source of the keplerian elements: AFSPC